Talkeetna, AK

9:20 AM AKDT on June 27, 2017 (GMT -0800)
Talkeetna

Weather History for PATK - October, 2012

Change the Weather History Date:

Sunday, October 21, 2012

  Actual Average Record
Temperature  
Mean Temperature 26 °F -  
Max Temperature 37 °F 37 °F 53 °F (1957)
Min Temperature 12 °F 22 °F -2 °F (1958)
Degree Days  
Heating Degree Days 40    
Moisture  
Dew Point 6 °F    
Average Humidity 42    
Maximum Humidity 81    
Minimum Humidity 15    
Precipitation  
Precipitation 0.00 in - - ()
Sea Level Pressure  
Sea Level Pressure 30.33 in    
Wind  
Wind Speed 5 mph (NNE)    
Max Wind Speed 10 mph    
Max Gust Speed -    
Visibility 10 miles    
Events      
Averages and records for this station are not official NWS values.
T = Trace of Precipitation, MM = Missing Value Source: NWS Daily Summary

Daily Weather History Graph

Daily Weather History Graph

Search for Another Location

Airport or City:

Trip Planner

Search our weather history database for the weather conditions in past years. The results will help you decide how hot, cold, wet, or windy it might be!

Date:

Astronomy

Oct. 21, 2012 Rise Set
Actual Time 9:04 AM AKDT 6:24 PM AKDT
Civil Twilight 8:17 AM AKDT 7:11 PM AKDT
Nautical Twilight 7:25 AM AKDT 8:03 PM AKDT
Astronomical Twilight 6:33 AM AKDT 8:54 PM AKDT
Moon 4:07 PM AKDT (10/21) No Moon Set
Length of Visible Light 10h 53m
Length of Day
9h 20m
Waxing Crescent, 47% of the Moon is Illuminated
Oct 21
Waxing Crescent
Oct 21
First Quarter
Oct 29
Full
Nov 6
Last Quarter
Nov 13
New

Hourly Weather History & Observations

Time (AKDT) Temp. Windchill Dew Point Humidity Pressure Visibility Wind Dir Wind Speed Gust Speed Precip Events Conditions
12:53 AM 30.0 °F 24.1 °F 7.0 °F 38% 30.39 in 10.0 mi NNW 5.8 mph - N/A   Clear
2:53 AM 30.0 °F 22.4 °F 6.1 °F 36% 30.38 in 10.0 mi NNE 8.1 mph - N/A   Clear
3:53 AM 28.9 °F 21.1 °F 6.1 °F 38% 30.38 in 10.0 mi NNE 8.1 mph - N/A   Clear
4:53 AM 26.1 °F 17.6 °F 8.1 °F 47% 30.38 in 10.0 mi NE 8.1 mph - N/A   Clear
5:53 AM 27.0 °F 19.5 °F 5.0 °F 39% 30.38 in 10.0 mi North 6.9 mph - N/A   Clear
6:53 AM 26.1 °F 19.4 °F 6.1 °F 43% 30.37 in 10.0 mi NNW 5.8 mph - N/A   Clear
8:53 AM 21.0 °F 16.2 °F 6.1 °F 53% 30.36 in 10.0 mi NNE 3.5 mph - N/A   Clear
9:53 AM 24.1 °F 13.7 °F 5.0 °F 44% 30.35 in 10.0 mi NNE 10.4 mph - N/A   Clear
10:53 AM 28.0 °F 24.2 °F 3.9 °F 36% 30.35 in 10.0 mi Variable 3.5 mph - N/A   Clear
11:53 AM 28.9 °F 21.9 °F 5.0 °F 36% 30.35 in 10.0 mi NE 6.9 mph - N/A   Clear
12:53 PM 32.0 °F 26.4 °F 3.9 °F 31% 30.34 in 10.0 mi NNE 5.8 mph - N/A   Clear
1:53 PM 34.0 °F 31.0 °F 3.9 °F 28% 30.32 in 10.0 mi Variable 3.5 mph - N/A   Clear
2:53 PM 36.0 °F 33.3 °F 5.0 °F 27% 30.31 in 10.0 mi Variable 3.5 mph - N/A   Clear
3:53 PM 37.0 °F - 6.1 °F 28% 30.30 in 10.0 mi Calm Calm - N/A   Clear
4:53 PM 37.0 °F - 3.9 °F 25% 30.28 in 10.0 mi Calm Calm - N/A   Clear
5:53 PM 33.1 °F 27.7 °F 9.0 °F 37% 30.28 in 10.0 mi SSW 5.8 mph - N/A   Clear
6:53 PM 27.0 °F - 8.1 °F 45% 30.28 in 10.0 mi Calm Calm - N/A   Clear
7:53 PM 21.0 °F - 10.9 °F 65% 30.29 in 10.0 mi Calm Calm - N/A   Clear
8:53 PM 19.9 °F - 5.0 °F 52% 30.29 in 10.0 mi Calm Calm - N/A   Clear
9:53 PM 17.1 °F - 8.1 °F 68% 30.29 in 10.0 mi Calm Calm - N/A   Clear
10:53 PM 14.0 °F - 9.0 °F 80% 30.30 in 10.0 mi Calm Calm - N/A   Clear
11:53 PM 12.9 °F - 8.1 °F 81% 30.31 in 10.0 mi Calm Calm - N/A   Clear